Regional Weather Roundup
Issued by NWS Albany, NY

Home | Current Version | Previous Version | Text Only | Print | Product List | Glossary On
Versions: 1 2 3 4 5 6 7 8 9 10 11 12 13 14 15 16 17 18 19 20 21 22 23 24 25 26 27 28 29 30 31 32 33 34 35 36 37 38 39 40 41 42 43 44 45 46 47 48 49 50
000
ASUS41 KALY 242110
RWRALY

NEW YORK STATE HOURLY WEATHER ROUNDUP
NATIONAL WEATHER SERVICE ALBANY NY
500 PM EDT FRI APR 24 2015

NOTE: "FAIR" INDICATES FEW OR NO CLOUDS BELOW 12,000 FEET WITH NO
SIGNIFICANT WEATHER AND/OR NO OBSTRUCTIONS TO VISIBILITY.

NYZ032-033-038>043-046>054-057>066-NYZ062>081-242200-
EAST


CITY           SKY/WX    TMP DP  RH WIND       PRES   REMARKS
ALBANY         CLOUDY    41  20  43 NW21G28   29.86R
GLENS FALLS    CLOUDY    42  22  44 W13       29.81R
POUGHKEEPSIE   CLOUDY    44  19  36 NW13G22   29.85R
NEWBURGH       PTSUNNY   43  25  49 NW14G26   29.87R
MONTGOMERY     CLOUDY    41  25  53 NW18G25   29.87R
WHITE PLAINS   PTSUNNY   43  20  39 NW18G26   29.84R
ISLIP          PTSUNNY   45  21  38 NW18G29   29.82R
NEW YORK CITY  MOSUNNY   49  20  31 N20G26    29.84R
CENTRAL PARK   SUNNY     50  17  27 MISG      29.87R
$$

NYZ005>009-017-018-044>046-055-056-242200-
CENTRAL


CITY           SKY/WX    TMP DP  RH WIND       PRES   REMARKS
FULTON         CLOUDY    39  23  52 W15G29    29.95R WCI  31
SYRACUSE       CLOUDY    38  21  50 NW21G28   29.95R WCI  28
ROME           CLOUDY    36  22  56 W15       29.93R WCI  27
ELMIRA         CLOUDY    44  20  38 NW18G25   29.92R
BINGHAMTON     CLOUDY    33  21  61 NW18G24   29.89R WCI  22
MONTICELLO     CLOUDY    36  21  55 W14G28    29.87R WCI  27
$$

NYZ026>034-041>043-242200-
NORTH


CITY           SKY/WX    TMP DP  RH WIND       PRES   REMARKS
WATERTOWN      MOSUNNY   40  23  50 SW14G23   29.91S WCI  32
FORT DRUM      NOT AVBL
MASSENA        CLOUDY    39  20  46 NW16G25   29.88R WCI  30
SARANAC LAKE   CLOUDY    32  19  58 W10G18    29.77R WCI  24
PLATTSBURGH    CLOUDY    39  20  46 NW13G24   29.82R WCI  31
$$

NYZ001>004-010>016-019>021-242200-
WEST


CITY           SKY/WX    TMP DP  RH WIND       PRES   REMARKS
NIAGARA FALLS  PTSUNNY   44  22  41 NW20      29.98R
BUFFALO        LGT RAIN  39  27  62 SW23G31   29.98S WCI  28
DUNKIRK        MOSUNNY   40  21  46 W15G25    30.02F WCI  32
JAMESTOWN      MOSUNNY   37  19  48 NW14      29.98S WCI  29
WELLSVILLE     MOSUNNY   39  19  44 NW16G26   29.93R WCI  30
ROCHESTER      PTSUNNY   42  19  39 NW15      29.96R
PENN YAN       CLOUDY    39  21  48 NW12G23   29.94R WCI  32
$$

             KEY
       WCI = WIND CHILL INDEX
       VSB = VISIBILITY
       HX  = HEAT INDEX
$$


USA.gov is the U.S. government's official web portal to all federal, state and local government web resources and services.